Weather reports worldwide

Advertisment
Aultbea, United Kingdom (3034): temperature & dewpoint: 18.04.2019 08:00:00 - 24.04.2019 08:00:00 (BST)Aultbea, United Kingdom (3034): temperature -20cm & temperature -100cm: 18.04.2019 08:00:00 - 24.04.2019 08:00:00 (BST)Aultbea, United Kingdom (3034): wind speed & gusts: 18.04.2019 08:00:00 - 24.04.2019 08:00:00 (BST)Aultbea, United Kingdom (3034): wind direction: 18.04.2019 08:00:00 - 24.04.2019 08:00:00 (BST)Aultbea, United Kingdom (3034): reduced air pressure: 18.04.2019 08:00:00 - 24.04.2019 08:00:00 (BST)Aultbea, United Kingdom (3034): visibility: 18.04.2019 08:00:00 - 24.04.2019 08:00:00 (BST)Aultbea, United Kingdom (3034): precipitation: 18.04.2019 08:00:00 - 24.04.2019 08:00:00 (BST)
Date & Time tt [°C] td [°C] tt -20cm [°C] tt -100cm [°C] ff [km/h] ff [kn] fx [km/h] fx [kn] dd ppp [hPa] vv [km] rr [mm]
24.04.2019 08:00:00 - - - - - - - - - - - -
24.04.2019 07:00:00 12,0 2,9 - - 9 5 - - ESE 997,2 28 0,0
24.04.2019 06:00:00 11,4 3,0 - - 13 7 - - SSE 996,9 30 0,0
24.04.2019 05:00:00 11,9 2,4 - - 13 7 - - NE 996,8 40 0,0
24.04.2019 04:00:00 11,2 3,7 - - 8 4 - - ESE 996,7 29 0,0
24.04.2019 03:00:00 12,4 4,0 - - 24 13 - - SSE 996,8 30 0,0
24.04.2019 02:00:00 13,2 3,5 - - 16 9 - - SE 997,2 30 0,0
24.04.2019 01:00:00 13,8 1,6 - - 16 9 54 29 ESE 998,0 45 0,0
24.04.2019 00:00:00 11,8 3,8 - - 11 6 - - E 997,9 35 0,0
23.04.2019 23:00:00 11,5 5,6 - - 16 9 - - ENE 998,3 21 0,0
23.04.2019 22:00:00 12,4 5,7 - - 18 10 - - ENE 998,5 23 0,0
23.04.2019 21:00:00 14,7 5,3 - - 13 7 - - ESE 998,6 22 0,0
23.04.2019 20:00:00 13,6 6,6 - - 22 12 - - ENE 998,3 18 0,0
23.04.2019 19:00:00 17,1 7,4 - - 16 9 - - ENE 997,9 24 0,0
23.04.2019 18:00:00 16,5 6,9 - - 22 12 - - ENE 997,9 27 0,0
23.04.2019 17:00:00 17,7 7,0 - - 16 9 - - ESE 998,4 22 0,0
23.04.2019 16:00:00 18,2 5,9 - - 22 12 - - SE 998,4 30 0,0
23.04.2019 15:00:00 21,3 5,8 - - 22 12 - - ESE 998,6 35 0,0
23.04.2019 14:00:00 19,7 6,0 - - 34 18 - - SE 998,7 35 0,0
23.04.2019 13:00:00 19,6 5,5 - - 31 17 - - SE 999,3 30 0,0
23.04.2019 12:00:00 18,9 5,4 - - 29 16 - - SE 999,6 35 0,0
23.04.2019 11:00:00 16,8 5,2 - - 21 11 - - SE 1000,0 40 0,0
23.04.2019 10:00:00 16,2 3,8 11,7 9,0 24 13 - - SE 1000,2 29 0,0
23.04.2019 09:00:00 14,7 4,3 - - 5 3 - - S 1000,4 30 0,0
23.04.2019 08:00:00 13,8 4,4 - - 13 7 - - SE 1000,5 30 0,0
23.04.2019 07:00:00 13,8 4,9 - - 8 4 - - S 1000,4 35 0,0
23.04.2019 06:00:00 12,6 5,3 - - 5 3 - - WNW 1000,8 30 0,0
23.04.2019 05:00:00 12,0 5,2 - - 8 4 - - NW 1001,1 35 0,0
23.04.2019 04:00:00 11,6 4,0 - - 4 2 - - E 1001,6 30 0,0
23.04.2019 03:00:00 11,1 3,9 - - 5 3 - - ESE 1002,1 40 0,0
23.04.2019 02:00:00 10,2 3,2 - - 4 2 - - NE 1002,4 40 0,0
23.04.2019 01:00:00 11,3 4,8 - - 4 2 - - E 1002,8 45 0,0
23.04.2019 00:00:00 11,5 6,1 - - 5 3 - - E 1002,8 30 0,0
22.04.2019 23:00:00 10,8 5,0 - - 8 4 - - E 1003,0 50 0,0
22.04.2019 22:00:00 11,4 4,6 - - 8 4 - - ENE 1003,1 30 0,0
22.04.2019 21:00:00 13,6 6,2 - - 5 3 - - S 1003,1 35 0,0
22.04.2019 20:00:00 15,5 7,0 - - 4 2 - - SW 1002,6 50 0,0
22.04.2019 19:00:00 17,1 6,3 - - 5 3 - - SSW 1002,5 50 0,0
22.04.2019 18:00:00 20,3 4,9 - - 9 5 - - N 1002,2 30 0,0
22.04.2019 17:00:00 19,7 5,0 - - 9 5 - - NNW 1002,6 40 0,0
22.04.2019 16:00:00 21,7 3,2 - - 5 3 - - W 1002,7 40 0,0
22.04.2019 15:00:00 19,9 5,1 - - 11 6 - - SSW 1003,2 35 0,0
22.04.2019 14:00:00 20,1 2,9 - - 16 9 - - S 1003,6 40 0,0
22.04.2019 13:00:00 21,3 3,6 - - 13 7 - - SSE 1003,9 40 0,0
22.04.2019 12:00:00 20,2 3,3 - - 26 14 54 29 S 1004,2 25 0,0
22.04.2019 11:00:00 19,3 2,4 - - 28 15 - - S 1004,4 35 0,0
22.04.2019 10:00:00 18,0 4,0 11,2 8,7 29 16 46 25 S 1004,3 35 0,0
22.04.2019 09:00:00 16,9 4,9 - - 22 12 - - S 1004,1 35 0,0
22.04.2019 08:00:00 15,6 4,8 - - 24 13 - - S 1004,0 26 0,0
22.04.2019 07:00:00 15,0 5,4 - - 18 10 - - S 1004,0 27 0,0
22.04.2019 06:00:00 12,3 7,7 - - 2 1 - - S 1004,0 30 0,0
22.04.2019 05:00:00 15,1 8,8 - - 8 4 - - SW 1003,8 45 0,0
22.04.2019 04:00:00 14,5 8,6 - - 9 5 - - SE 1003,8 30 0,0
22.04.2019 03:00:00 15,3 8,8 - - 15 8 - - S 1004,4 29 0,0
22.04.2019 02:00:00 15,5 8,7 - - 26 14 - - S 1004,8 26 0,0
22.04.2019 01:00:00 15,3 9,9 - - 26 14 - - S 1005,4 29 0,0
22.04.2019 00:00:00 15,0 10,0 - - 21 11 - - SSE 1005,8 40 0,0
21.04.2019 23:00:00 15,6 9,9 - - 29 16 - - S 1006,5 24 0,0
21.04.2019 22:00:00 16,1 10,3 - - 24 13 - - S 1006,7 40 0,0
21.04.2019 21:00:00 15,5 9,9 - - 18 10 - - SSE 1006,9 40 0,0
21.04.2019 20:00:00 15,5 10,7 - - 22 12 - - S 1007,4 26 0,0
21.04.2019 19:00:00 15,1 11,0 - - 22 12 - - SSW 1008,0 16 0,0
21.04.2019 18:00:00 15,1 10,8 - - 28 15 50 27 SSW 1008,8 18 0,0
21.04.2019 17:00:00 15,1 10,5 - - 22 12 48 26 SSW 1009,6 21 0,0
21.04.2019 16:00:00 16,5 11,3 - - 35 19 50 27 SSW 1010,4 30 0,0
21.04.2019 15:00:00 15,8 10,9 - - 35 19 52 28 SSW 1011,3 30 0,0
21.04.2019 14:00:00 14,3 11,0 - - 34 18 52 28 SSW 1012,5 24 0,0
21.04.2019 13:00:00 15,0 11,1 - - 31 17 - - S 1013,1 40 0,0
21.04.2019 12:00:00 14,0 11,1 - - 31 17 - - S 1014,0 22 0,0
21.04.2019 11:00:00 13,8 11,2 - - 29 16 - - S 1014,7 40 0,0
21.04.2019 10:00:00 13,1 11,3 10,5 8,7 11 6 - - SSE 1015,5 45 0,0
21.04.2019 09:00:00 11,8 11,3 - - 11 6 - - S 1016,6 11 0,0
21.04.2019 08:00:00 10,3 10,1 - - 8 4 - - ESE 1017,3 18 0,4
21.04.2019 07:00:00 9,6 9,4 - - 4 2 - - E 1018,4 5 0,4
21.04.2019 06:00:00 9,4 9,2 - - 2 1 - - SSW 1019,1 2,9 0,4
21.04.2019 05:00:00 9,3 9,0 - - 4 2 - - NW 1019,9 8 0,0
21.04.2019 04:00:00 9,3 9,1 - - 4 2 - - ENE 1020,7 7 0,4
21.04.2019 03:00:00 9,5 9,2 - - 2 1 - - SE 1021,7 3,6 0,0
21.04.2019 02:00:00 9,5 9,1 - - 2 1 - - E 1022,8 3,2 0,6
21.04.2019 01:00:00 9,4 9,0 - - 2 1 - - NNW 1023,9 3,6 2,0
21.04.2019 00:00:00 9,8 9,1 - - 4 2 - - S 1024,6 8 2,0
20.04.2019 23:00:00 10,0 9,2 - - 5 3 - - N 1025,8 30 0,6
20.04.2019 22:00:00 10,1 9,0 - - 11 6 - - ENE 1026,2 21 0,0
20.04.2019 21:00:00 10,5 9,0 - - 5 3 - - NE 1027,1 50 0,0
20.04.2019 20:00:00 11,0 9,2 - - 2 1 - - N 1027,7 50 0,0
20.04.2019 19:00:00 11,6 9,7 - - 8 4 - - NNW 1027,9 45 0,0
20.04.2019 18:00:00 11,8 9,5 - - 8 4 - - W 1028,0 35 0,2
20.04.2019 17:00:00 11,5 9,6 - - 9 5 - - SW 1028,9 40 0,2
20.04.2019 16:00:00 12,5 9,1 - - 8 4 - - SSE 1029,3 45 0,0
20.04.2019 15:00:00 12,5 8,9 - - 11 6 - - SSW 1030,0 50 0,0
20.04.2019 14:00:00 12,9 9,1 - - 13 7 - - S 1030,4 30 0,0
20.04.2019 13:00:00 12,3 9,3 - - 24 13 - - SW 1030,1 30 0,0
20.04.2019 12:00:00 12,6 9,4 - - 29 16 - - SW 1029,9 30 0,0
20.04.2019 11:00:00 11,9 9,3 - - 31 17 54 29 SSW 1029,8 40 0,0
20.04.2019 10:00:00 12,1 9,3 10,5 8,4 24 13 - - SSW 1029,9 50 0,0
20.04.2019 09:00:00 11,7 8,9 - - 18 10 - - SSW 1029,9 50 0,0
20.04.2019 08:00:00 11,3 8,9 - - 16 9 - - S 1029,6 50 0,0
20.04.2019 07:00:00 10,7 9,1 - - 18 10 - - SSW 1029,5 19 0,0
20.04.2019 06:00:00 10,5 8,9 - - 22 12 - - SW 1029,4 29 0,0
20.04.2019 05:00:00 10,9 9,0 - - 26 14 - - SW 1028,9 23 0,0
20.04.2019 04:00:00 10,8 9,0 - - 31 17 - - SW 1028,8 21 0,0
20.04.2019 03:00:00 11,4 8,8 - - 18 10 - - SW 1028,3 15 0,0
20.04.2019 02:00:00 12,2 8,5 - - 26 14 - - SW 1028,1 12 0,0
20.04.2019 01:00:00 13,0 8,2 - - 28 15 - - SSW 1027,9 12 0,0
20.04.2019 00:00:00 13,0 7,3 - - 22 12 - - SSW 1028,0 14 0,0
19.04.2019 23:00:00 15,7 6,5 - - 34 18 - - S 1027,7 19 0,0
19.04.2019 22:00:00 15,3 6,1 - - 31 17 - - S 1027,5 24 0,0
19.04.2019 21:00:00 15,8 5,6 - - 24 13 - - S 1027,5 30 0,0
19.04.2019 20:00:00 16,7 5,7 - - 24 13 - - S 1027,1 22 0,0
19.04.2019 19:00:00 17,1 6,5 - - 26 14 - - S 1027,0 17 0,0
19.04.2019 18:00:00 17,4 8,3 - - 21 11 - - S 1027,0 22 0,0
19.04.2019 17:00:00 17,8 8,3 - - 22 12 - - SSW 1027,1 25 0,0
19.04.2019 16:00:00 17,2 7,8 - - 29 16 46 25 SSW 1027,2 20 0,0
19.04.2019 15:00:00 18,1 8,3 - - 31 17 - - SSW 1027,4 17 0,0
19.04.2019 14:00:00 18,4 8,1 - - 26 14 - - SW 1027,2 15 0,0
19.04.2019 13:00:00 17,8 9,1 - - 15 8 - - SSW 1027,5 19 0,0
19.04.2019 12:00:00 17,8 7,6 - - 16 9 - - SSW 1027,8 18 0,0
19.04.2019 11:00:00 17,1 6,7 - - 11 6 - - SE 1028,1 22 0,0
19.04.2019 10:00:00 15,2 5,0 9,7 8,2 15 8 - - S 1028,3 40 0,0
19.04.2019 09:00:00 12,2 5,3 - - 9 5 - - E 1028,3 35 0,0
19.04.2019 08:00:00 11,1 4,4 - - 8 4 - - E 1028,2 24 0,0
19.04.2019 07:00:00 10,8 3,7 - - 8 4 - - ESE 1028,0 29 0,0
19.04.2019 06:00:00 9,3 3,6 - - 5 3 - - ESE 1027,8 27 0,0
19.04.2019 05:00:00 10,2 4,8 - - 8 4 - - ESE 1027,7 35 0,0
19.04.2019 04:00:00 9,8 5,1 - - 4 2 - - E 1027,6 29 0,0
19.04.2019 03:00:00 10,2 6,2 - - 8 4 - - E 1027,8 27 0,0
19.04.2019 02:00:00 10,0 6,4 - - 8 4 - - E 1028,0 35 0,0
19.04.2019 01:00:00 7,4 4,8 - - 5 3 - - ESE 1028,1 15 0,0
19.04.2019 00:00:00 8,4 5,8 - - 4 2 - - E 1028,2 15 0,0
18.04.2019 23:00:00 8,5 5,3 - - 2 1 - - S 1028,0 13 0,0
18.04.2019 22:00:00 10,2 6,2 - - 5 3 - - W 1028,0 17 0,0
18.04.2019 21:00:00 11,3 5,7 - - 5 3 - - E 1027,8 22 0,0
18.04.2019 20:00:00 13,2 5,4 - - 9 5 - - NW 1027,2 24 0,0
18.04.2019 19:00:00 14,7 5,6 - - 9 5 - - NW 1026,6 25 0,0
18.04.2019 18:00:00 15,3 6,8 - - 5 3 - - NW 1026,2 20 0,0
18.04.2019 17:00:00 17,6 6,2 - - 9 5 - - NW 1025,8 15 0,0
18.04.2019 16:00:00 14,7 6,6 - - 13 7 - - NW 1025,8 16 0,0
18.04.2019 15:00:00 14,7 7,5 - - 13 7 - - NW 1025,9 15 0,0
18.04.2019 14:00:00 17,7 5,7 - - 11 6 - - S 1026,1 15 0,0
18.04.2019 13:00:00 18,4 5,0 - - 11 6 - - SE 1026,2 27 0,0
18.04.2019 12:00:00 17,9 6,3 - - 16 9 - - SE 1026,5 26 0,0
18.04.2019 11:00:00 17,2 6,9 - - 11 6 - - SSE 1026,7 35 0,0
18.04.2019 10:00:00 14,8 5,9 9,0 8,0 11 6 - - SE 1026,8 40 0,0
18.04.2019 09:00:00 13,5 5,5 - - 2 1 - - SSE 1026,4 35 0,0
18.04.2019 08:00:00 10,2 5,8 - - 0 0 - - N 1026,0 27 0,0

tt = temperature
td = dewpoint
tt -20cm = temperature -20cm
tt -100cm = temperature -100cm
ff = wind speed
fx = gusts
dd = wind direction
ppp = reduced air pressure
vv = visibility
rr = precipitation

Next stations